GW5351 Weather Reports


Display with metric or nautical units.
time (UTC)temp
F
wind
direction
speed
MPH
gust
MPH
rain 1hr
in
rain 24hr
in
rain mn
in
humidity
%
barometer
mb
20260906220715 87 243 3.0 4.0 0.00 0.00 0.00 73 1013.0
20260906220210 87 182 1.0 2.0 0.00 0.00 0.00 75 1013.2
20260906215709 87 181 4.0 6.0 0.00 0.00 0.00 76 1013.3
20260906215209 86 164 1.0 1.0 0.00 0.00 0.00 77 1013.4
20260906214707 85 221 0.0 2.0 0.00 0.00 0.00 80 1013.5
20260906214203 84 216 0.0 3.0 0.00 0.00 0.00 81 1013.4
20260906213701 84 212 1.0 2.0 0.00 0.00 0.00 81 1013.4
20260906213155 84 223 0.0 2.0 0.00 0.00 0.00 82 1013.7
20260906212653 84 199 0.0 1.0 0.00 0.00 0.00 84 1013.6
20260906212149 84 215 1.0 3.0 0.00 0.00 0.00 85 1013.5
20260906211649 84 211 0.0 3.0 0.00 0.00 0.00 85 1013.5
20260906211143 84 183 1.0 1.0 0.00 0.00 0.00 85 1014.0
20260906210639 84 237 2.0 2.0 0.00 0.00 0.00 85 1013.9
20260906210133 84 211 1.0 2.0 0.00 0.00 0.00 85 1013.9
20260906205630 84 229 0.0 2.0 0.00 0.00 0.00 85 1014.0
20260906205126 84 223 1.0 2.0 0.00 0.00 0.00 84 1014.0
20260906204625 84 232 0.0 1.0 0.00 0.00 0.00 83 1014.2
20260906204120 84 206 0.0 1.0 0.00 0.00 0.00 83 1014.1
20260906203619 84 230 0.0 0.0 0.00 0.00 0.00 83 1014.3
20260906203114 84 202 0.0 1.0 0.00 0.00 0.00 83 1014.4
20260906202611 85 180 1.0 3.0 0.00 0.00 0.00 83 1014.3
20260906202110 85 203 0.0 3.0 0.00 0.00 0.00 82 1014.2
20260906201605 85 153 2.0 3.0 0.00 0.00 0.00 82 1014.1
20260906201105 85 187 2.0 3.0 0.00 0.00 0.00 81 1014.2
20260906200601 86 159 3.0 6.0 0.00 0.00 0.00 79 1014.3
20260906200056 87 220 0.0 2.0 0.00 0.00 0.00 79 1014.5
20260906195551 87 246 3.0 4.0 0.00 0.00 0.00 77 1014.4
20260906195048 86 227 1.0 4.0 0.00 0.00 0.00 78 1014.2
20260906194544 86 170 1.0 3.0 0.00 0.00 0.00 80 1013.8
20260906194040 86 146 2.0 3.0 0.00 0.00 0.00 81 1014.1
20260906193539 85 219 0.0 3.0 0.00 0.00 0.00 83 1014.2
20260906193034 85 218 0.0 1.0 0.00 0.00 0.00 83 1014.3
20260906192530 85 197 2.0 2.0 0.00 0.00 0.00 83 1014.5
20260906192028 85 229 1.0 6.0 0.00 0.00 0.00 81 1014.4
20260906191524 85 229 2.0 7.0 0.00 0.00 0.00 81 1014.6
20260906191023 86 228 2.0 7.0 0.00 0.00 0.00 82 1014.6
20260906190522 86 206 1.0 3.0 0.00 0.00 0.00 81 1014.8
20260906190018 86 214 1.0 4.0 0.00 0.00 0.00 83 1014.8
20260906185516 86 222 2.0 3.0 0.00 0.00 0.00 84 1014.6
20260906185015 85 233 2.0 2.0 0.00 0.00 0.00 85 1014.7
20260906184511 85 209 2.0 3.0 0.00 0.00 0.00 87 1014.8
20260906184007 84 218 1.0 2.0 0.00 0.00 0.00 88 1015.0
20260906183502 84 242 2.0 3.0 0.00 0.00 0.00 89 1014.9
20260906182958 83 201 1.0 2.0 0.00 0.00 0.00 91 1015.2
20260906182453 83 232 2.0 3.0 0.00 0.00 0.00 91 1015.1
20260906181949 82 229 1.0 3.0 0.00 0.00 0.00 93 1015.0
20260906181444 82 220 1.0 8.0 0.00 0.00 0.00 92 1015.0
20260906180940 82 242 2.0 2.0 0.00 0.00 0.00 92 1015.0
20260906180435 82 214 2.0 3.0 0.00 0.00 0.00 91 1014.8
20260906175932 82 255 1.0 1.0 0.00 0.00 0.00 91 1015.0
20260906175428 83 228 1.0 2.0 0.00 0.00 0.00 89 1015.0
20260906174926 82 223 0.0 1.0 0.00 0.00 0.00 91 1015.0
20260906174426 80 246 2.0 3.0 0.00 0.00 0.00 91 1014.9
20260906173921 80 251 2.0 3.0 0.00 0.00 0.00 91 1015.2
20260906173416 80 223 0.0 1.0 0.00 0.00 0.00 93 1015.1
20260906172915 80 231 1.0 3.0 0.00 0.00 0.00 92 1015.4
20260906172413 80 271 1.0 3.0 0.00 0.00 0.00 91 1015.5
20260906171913 81 223 1.0 2.0 0.00 0.00 0.00 90 1015.5
20260906171407 81 225 2.0 3.0 0.00 0.00 0.00 88 1015.5
20260906170903 82 260 1.0 4.0 0.00 0.00 0.00 88 1015.7
20260906170359 84 225 2.0 4.0 0.00 0.00 0.00 81 1015.8
20260906165855 84 257 2.0 6.0 0.00 0.00 0.00 81 1015.5
20260906165354 85 284 3.0 4.0 0.00 0.00 0.00 82 1015.6
20260906164849 86 231 4.0 6.0 0.00 0.00 0.00 81 1015.4
20260906164348 88 257 2.0 3.0 0.00 0.00 0.00 78 1015.5
20260906163844 88 214 0.0 0.0 0.00 0.00 0.00 76 1015.4
20260906163341 88 224 0.0 2.0 0.00 0.00 0.00 77 1015.5
20260906162838 88 230 0.0 1.0 0.00 0.00 0.00 76 1015.6
20260906162337 90 304 4.0 6.0 0.00 0.00 0.00 73 1015.5
20260906161833 92 186 2.0 3.0 0.00 0.00 0.00 69 1015.6
20260906161332 92 245 1.0 3.0 0.00 0.00 0.00 74 1015.4
20260906160831 91 191 1.0 1.0 0.00 0.00 0.00 73 1015.6
20260906160331 90 216 0.0 1.0 0.00 0.00 0.00 77 1015.5
20260906155829 90 205 1.0 2.0 0.00 0.00 0.00 78 1015.6
20260906155323 89 211 0.0 3.0 0.00 0.00 0.00 78 1015.5
20260906154819 88 210 0.0 1.0 0.00 0.00 0.00 79 1015.5
20260906154314 87 192 2.0 2.0 0.00 0.00 0.00 83 1015.5
20260906153812 86 333 2.0 3.0 0.00 0.00 0.00 83 1015.6
20260906153306 87 263 2.0 3.0 0.00 0.00 0.00 84 1015.6
20260906152801 87 223 1.0 1.0 0.00 0.00 0.00 83 1015.6
20260906152256 87 213 0.0 2.0 0.00 0.00 0.00 84 1015.8
20260906151755 87 224 0.0 2.0 0.00 0.00 0.00 85 1015.6
20260906151252 86 200 1.0 3.0 0.00 0.00 0.00 85 1015.7
20260906150747 85 211 0.0 0.0 0.00 0.00 0.00 87 1015.7
20260906150242 85 225 0.0 2.0 0.00 0.00 0.00 87 1015.7
20260906145742 85 227 0.0 1.0 0.00 0.00 0.00 87 1015.6
20260906145240 86 211 0.0 1.0 0.00 0.00 0.00 86 1015.6
20260906144736 86 223 0.0 0.0 0.00 0.00 0.00 85 1015.5
20260906144236 86 164 0.0 1.0 0.00 0.00 0.00 86 1015.4
20260906143735 85 224 0.0 2.0 0.00 0.00 0.00 86 1015.6
20260906143232 85 173 2.0 3.0 0.00 0.00 0.00 87 1015.4
20260906142732 85 279 1.0 2.0 0.00 0.00 0.00 87 1015.5
20260906142227 84 146 0.0 0.0 0.00 0.00 0.00 89 1015.3
20260906141726 83 267 1.0 3.0 0.00 0.00 0.00 89 1015.6
20260906141221 83 347 3.0 3.0 0.00 0.00 0.00 90 1015.4
20260906140720 83 233 0.0 2.0 0.00 0.00 0.00 90 1015.3
20260906140215 83 197 0.0 1.0 0.00 0.00 0.00 90 1015.6
20260906135712 82 206 0.0 1.0 0.00 0.00 0.00 93 1015.4
20260906135208 81 219 0.0 1.0 0.00 0.00 0.00 95 1015.4
20260906134703 80 220 0.0 0.0 0.00 0.00 0.00 97 1015.3
20260906134159 79 253 0.0 1.0 0.00 0.00 0.00 98 1015.4
20260906133654 78 205 0.0 1.0 0.00 0.00 0.00 99 1015.5
20260906133149 78 200 0.0 2.0 0.00 0.00 0.00 99 1015.1
20260906132644 78 239 0.0 0.0 0.00 0.00 0.00 99 1015.3
20260906132140 77 233 0.0 0.0 0.00 0.00 0.00 99 1015.0
20260906131636 77 198 0.0 1.0 0.00 0.00 0.00 99 1015.0
20260906131130 77 194 0.0 0.0 0.00 0.00 0.00 99 1014.8
20260906130626 77 205 0.0 0.0 0.00 0.00 0.00 99 1014.9
20260906130121 77 205 0.0 0.0 0.00 0.00 0.00 99 1014.8
20260906125619 77 205 0.0 0.0 0.00 0.00 0.00 99 1014.9
20260906125117 76 227 0.0 0.0 0.00 0.00 0.00 99 1015.0
20260906124613 76 232 0.0 2.0 0.00 0.00 0.00 99 1014.8
20260906124108 76 233 0.0 0.0 0.00 0.00 0.00 99 1014.8
20260906123608 76 205 0.0 0.0 0.00 0.00 0.00 99 1014.8
20260906123103 76 205 0.0 0.0 0.00 0.00 0.00 99 1014.5
20260906122602 76 205 0.0 0.0 0.00 0.00 0.00 99 1014.5
20260906122058 76 205 0.0 0.0 0.00 0.00 0.00 99 1014.4
20260906121554 76 225 0.0 0.0 0.00 0.00 0.00 99 1014.5
20260906121051 76 225 0.0 0.0 0.00 0.00 0.00 99 1014.3
20260906120551 76 225 0.0 0.0 0.00 0.00 0.00 99 1014.2
20260906120049 76 225 0.0 0.0 0.00 0.00 0.00 99 1014.4
20260906115549 76 216 0.0 0.0 0.00 0.00 0.00 99 1014.2
20260906115044 76 228 0.0 0.0 0.00 0.00 0.00 99 1014.1
20260906114543 76 206 0.0 0.0 0.00 0.00 0.00 99 1014.3
20260906114039 76 206 0.0 0.0 0.00 0.00 0.00 99 1014.0
20260906113538 76 205 0.0 0.0 0.00 0.00 0.00 99 1014.1
20260906113033 76 205 0.0 0.0 0.00 0.00 0.00 99 1014.0
20260906112528 76 205 0.0 0.0 0.00 0.00 0.00 99 1014.0
20260906112025 76 205 0.0 0.0 0.00 0.00 0.00 99 1013.8
20260906111524 76 205 0.0 0.0 0.00 0.00 0.00 99 1013.8
20260906111020 76 205 0.0 0.0 0.00 0.00 0.00 99 1013.8
20260906110514 76 205 0.0 0.0 0.00 0.00 0.00 99 1014.0
20260906110013 76 205 0.0 0.0 0.00 0.00 0.00 99 1013.8
20260906105509 76 205 0.0 0.0 0.00 0.00 0.00 99 1013.7
20260906105005 76 205 0.0 0.0 0.00 0.00 0.00 99 1013.6
20260906104503 76 205 0.0 0.0 0.00 0.00 0.00 99 1013.5
20260906104003 76 205 0.0 0.0 0.00 0.00 0.00 99 1013.5
20260906103501 76 205 0.0 0.0 0.00 0.00 0.00 99 1013.6
20260906102956 76 205 0.0 0.0 0.00 0.00 0.00 99 1013.4
20260906102451 76 205 0.0 0.0 0.00 0.00 0.00 99 1013.5
20260906101950 77 205 0.0 0.0 0.00 0.00 0.00 99 1013.5
20260906101446 77 205 0.0 0.0 0.00 0.00 0.00 99 1013.4
20260906100947 77 205 0.0 0.0 0.00 0.00 0.00 99 1013.5
20260906100442 77 205 0.0 0.0 0.00 0.00 0.00 99 1013.2
20260906095942 77 205 0.0 0.0 0.00 0.00 0.00 99 1013.2
20260906095437 77 205 0.0 0.0 0.00 0.00 0.00 98 1013.3
20260906094932 77 205 0.0 0.0 0.00 0.00 0.00 98 1013.5
20260906094426 77 225 0.0 0.0 0.00 0.00 0.00 98 1013.4
20260906093917 77 225 0.0 0.0 0.00 0.00 0.00 98 1013.5
20260906093413 77 225 0.0 0.0 0.00 0.00 0.00 98 1013.5
20260906092912 77 224 0.0 0.0 0.00 0.00 0.00 98 1013.6
20260906092407 77 224 0.0 0.0 0.00 0.00 0.00 98 1013.5
20260906091902 77 206 0.0 0.0 0.00 0.00 0.00 98 1013.5
20260906091358 77 205 0.0 0.0 0.00 0.00 0.00 98 1013.3
20260906090855 77 220 0.0 0.0 0.00 0.00 0.00 98 1013.3
20260906090354 77 220 0.0 0.0 0.00 0.00 0.00 98 1013.2
20260906085854 77 234 0.0 0.0 0.00 0.00 0.00 98 1013.2
20260906085347 77 234 0.0 0.0 0.00 0.00 0.00 98 1013.0
20260906084842 77 234 0.0 0.0 0.00 0.00 0.00 98 1013.1
20260906084342 77 234 0.0 0.0 0.00 0.00 0.00 98 1013.0
20260906083836 77 233 0.0 0.0 0.00 0.00 0.00 98 1013.2
20260906083332 77 233 0.0 0.0 0.00 0.00 0.00 98 1013.2
20260906082826 77 233 0.0 0.0 0.00 0.00 0.00 98 1013.1
20260906082322 77 234 0.0 0.0 0.00 0.00 0.00 98 1013.3
20260906081818 77 234 0.0 0.0 0.00 0.00 0.00 98 1013.5
20260906081313 77 224 0.0 1.0 0.00 0.00 0.00 98 1013.3
20260906080809 77 201 0.0 0.0 0.00 0.00 0.00 98 1013.1
20260906080305 77 204 0.0 0.0 0.00 0.00 0.00 98 1013.3
20260906075804 77 204 0.0 0.0 0.00 0.00 0.00 98 1013.3
20260906075306 77 204 0.0 0.0 0.00 0.00 0.00 98 1013.2
20260906074759 77 203 0.0 0.0 0.00 0.00 0.00 98 1013.4
20260906074259 77 204 0.0 0.0 0.00 0.00 0.00 98 1013.4
20260906073758 77 204 0.0 0.0 0.00 0.00 0.00 98 1013.4
20260906073253 77 204 0.0 0.0 0.00 0.00 0.00 98 1013.5
20260906072749 77 204 0.0 0.0 0.00 0.00 0.00 98 1013.5
20260906072244 77 204 0.0 0.0 0.00 0.00 0.00 98 1013.6
20260906071740 77 204 0.0 0.0 0.00 0.00 0.00 98 1013.5
20260906071240 77 204 0.0 0.0 0.00 0.00 0.00 97 1013.7
20260906070737 77 204 0.0 0.0 0.00 0.00 0.00 97 1013.5
20260906070232 77 204 0.0 0.0 0.00 0.00 0.00 97 1013.5
20260906065732 77 204 0.0 0.0 0.00 0.00 0.00 97 1013.6
20260906065227 77 204 0.0 0.0 0.00 0.00 0.00 97 1013.4
20260906064723 77 204 0.0 0.0 0.00 0.00 0.00 97 1013.7
20260906064218 77 204 0.0 0.0 0.00 0.00 0.00 97 1013.4
20260906063713 77 204 0.0 0.0 0.00 0.00 0.00 97 1013.6
20260906063209 77 204 0.0 0.0 0.00 0.00 0.00 97 1013.6
20260906062704 77 204 0.0 0.0 0.00 0.00 0.00 97 1013.6
20260906062203 77 204 0.0 0.0 0.00 0.00 0.00 97 1013.6
20260906061659 77 204 0.0 0.0 0.00 0.00 0.00 97 1013.7
20260906061154 77 204 0.0 0.0 0.00 0.00 0.00 97 1013.8
20260906060651 77 204 0.0 0.0 0.00 0.00 0.00 97 1013.5
20260906060148 77 204 0.0 0.0 0.00 0.00 0.00 97 1013.5
20260906055643 77 204 0.0 0.0 0.00 0.00 0.00 97 1013.7
20260906055138 77 204 0.0 0.0 0.00 0.00 0.00 97 1013.7
20260906054633 77 204 0.0 0.0 0.00 0.00 0.00 97 1013.8
20260906054128 77 204 0.0 0.0 0.00 0.00 0.00 97 1013.9
20260906053625 77 204 0.0 0.0 0.00 0.00 0.00 97 1013.9
20260906053120 77 204 0.0 0.0 0.00 0.00 0.00 97 1013.7
20260906052615 77 204 0.0 0.0 0.00 0.00 0.00 97 1013.7
20260906052112 77 204 0.0 0.0 0.00 0.00 0.00 97 1013.9
20260906051608 77 204 0.0 0.0 0.00 0.00 0.00 97 1013.7
20260906051103 77 204 0.0 0.0 0.00 0.00 0.00 97 1013.5
20260906050558 77 204 0.0 0.0 0.00 0.00 0.00 97 1013.8
20260906050053 77 204 0.0 0.0 0.00 0.00 0.00 97 1013.6
20260906045551 77 204 0.0 0.0 0.00 0.00 0.00 97 1013.9
20260906045047 77 204 0.0 0.0 0.00 0.00 0.00 96 1013.8
20260906044542 77 204 0.0 0.0 0.00 0.00 0.00 96 1013.7
20260906044038 77 204 0.0 0.0 0.00 0.00 0.00 96 1013.8
20260906043533 77 204 0.0 0.0 0.00 0.00 0.00 96 1013.7
20260906043030 77 204 0.0 0.0 0.00 0.00 0.00 96 1013.6
20260906042528 77 204 0.0 0.0 0.00 0.00 0.00 96 1013.7
20260906042022 77 204 0.0 0.0 0.00 0.00 0.00 96 1013.6
20260906041519 77 204 0.0 0.0 0.00 0.00 0.00 96 1013.8
20260906041019 77 204 0.0 0.0 0.00 0.00 0.00 95 1013.7
20260906040514 77 204 0.0 0.0 0.00 0.00 0.00 95 1013.7
20260906040010 77 204 0.0 0.0 0.00 0.00 0.00 95 1013.8
20260906035504 77 194 0.0 0.0 0.00 0.00 0.00 95 1014.0
20260906035000 78 204 0.0 0.0 0.00 0.00 0.00 95 1014.0
20260906034500 78 205 0.0 0.0 0.00 0.00 0.00 95 1013.8
20260906033955 78 216 0.0 0.0 0.00 0.00 0.00 95 1013.8
20260906033450 78 223 0.0 0.0 0.00 0.00 0.00 95 1013.9
20260906032946 78 223 0.0 1.0 0.00 0.00 0.00 95 1013.9
20260906032443 78 213 0.0 0.0 0.00 0.00 0.00 95 1014.0
20260906031942 78 204 0.0 2.0 0.00 0.00 0.00 95 1014.0
20260906031438 78 200 0.0 0.0 0.00 0.00 0.00 95 1013.9
20260906030933 78 194 0.0 0.0 0.00 0.00 0.00 94 1013.9
20260906030427 78 203 0.0 0.0 0.00 0.00 0.00 94 1013.9
20260906025922 78 203 0.0 0.0 0.00 0.00 0.00 94 1013.7
20260906025416 78 203 0.0 0.0 0.00 0.00 0.00 94 1013.9
20260906024915 78 204 0.0 0.0 0.00 0.00 0.00 94 1013.5
20260906024415 78 204 0.0 0.0 0.00 0.00 0.00 94 1013.6
20260906023910 78 205 0.0 0.0 0.00 0.00 0.00 94 1013.6
20260906023406 78 257 0.0 2.0 0.00 0.00 0.00 94 1013.5
20260906022900 78 169 0.0 1.0 0.00 0.00 0.00 94 1013.4
20260906022355 78 203 1.0 3.0 0.00 0.00 0.00 94 1013.5
20260906021851 78 224 1.0 2.0 0.00 0.00 0.00 95 1013.3
20260906021350 78 202 0.0 1.0 0.00 0.00 0.00 95 1013.2
20260906020845 78 252 0.0 3.0 0.00 0.00 0.00 94 1013.1
20260906020344 78 247 0.0 1.0 0.00 0.00 0.00 94 1013.2
20260906015840 78 176 1.0 2.0 0.00 0.00 0.00 94 1013.3
20260906015339 78 199 0.0 2.0 0.00 0.00 0.00 94 1013.2
20260906014838 79 183 2.0 2.0 0.00 0.00 0.00 93 1013.1
20260906014333 79 224 0.0 1.0 0.00 0.00 0.00 93 1013.0
20260906013830 79 200 0.0 2.0 0.00 0.00 0.00 93 1012.8
20260906013325 79 213 0.0 1.0 0.00 0.00 0.00 92 1012.9
20260906012821 79 186 1.0 1.0 0.00 0.00 0.00 92 1012.8
20260906012320 79 153 1.0 1.0 0.00 0.00 0.00 92 1012.8
20260906011815 79 203 0.0 2.0 0.00 0.00 0.00 92 1012.8
20260906011310 79 168 2.0 3.0 0.00 0.00 0.00 91 1012.8
20260906010806 79 204 1.0 2.0 0.00 0.00 0.00 91 1012.6
20260906010302 79 212 0.0 0.0 0.00 0.00 0.00 91 1012.6
20260906005757 80 230 0.0 0.0 0.00 0.00 0.00 91 1012.5
20260906005256 80 230 0.0 0.0 0.00 0.00 0.00 91 1012.6
20260906004754 80 183 0.0 1.0 0.00 0.00 0.00 90 1012.8
20260906004250 80 210 0.0 0.0 0.00 0.00 0.00 90 1012.9
20260906003749 80 182 0.0 1.0 0.00 0.00 0.00 90 1012.9
20260906003245 80 204 0.0 2.0 0.00 0.00 0.00 90 1013.0
20260906002740 80 186 1.0 1.0 0.00 0.00 0.00 89 1013.1
20260906002240 80 246 0.0 1.0 0.00 0.00 0.00 89 1013.3
20260906001736 80 210 0.0 1.0 0.00 0.00 0.00 88 1013.2
20260906001230 80 230 0.0 2.0 0.00 0.00 0.00 88 1013.2
20260906000726 81 224 0.0 4.0 0.00 0.00 0.00 87 1013.3
20260906000221 81 228 1.0 1.0 0.00 0.00 0.00 87 1013.3
20260905235721 81 235 1.0 2.0 0.00 0.00 0.00 87 1013.3
20260905235215 81 208 0.0 2.0 0.00 0.00 0.00 87 1013.4
20260905234711 81 290 1.0 2.0 0.00 0.00 0.00 86 1013.3
20260905234206 82 12 2.0 3.0 0.00 0.00 0.00 85 1013.3
20260905233701 82 226 0.0 0.0 0.00 0.00 0.00 85 1013.3
20260905233201 82 204 0.0 0.0 0.00 0.00 0.00 84 1013.3
20260905232656 82 236 0.0 0.0 0.00 0.00 0.00 84 1013.5
20260905232151 82 236 0.0 1.0 0.00 0.00 0.00 84 1013.5
20260905231647 82 236 0.0 1.0 0.00 0.00 0.00 84 1013.4
20260905231143 82 221 0.0 2.0 0.00 0.00 0.00 84 1013.4
20260905230638 82 223 0.0 1.0 0.00 0.00 0.00 84 1013.3
20260905230136 82 209 0.0 1.0 0.00 0.00 0.00 84 1013.4
20260905225637 82 236 1.0 1.0 0.00 0.00 0.00 83 1013.3
20260905225137 82 245 0.0 0.0 0.00 0.00 0.00 82 1013.3
20260905224636 82 239 1.0 2.0 0.00 0.00 0.00 82 1013.2
20260905224136 82 323 1.0 2.0 0.00 0.00 0.00 81 1013.2
20260905223633 82 335 2.0 4.0 0.00 0.00 0.00 80 1013.2
20260905223129 83 271 1.0 3.0 0.00 0.00 0.00 77 1013.3
20260905222624 83 214 0.0 1.0 0.00 0.00 0.00 76 1013.1
20260905222119 82 204 0.0 2.0 0.00 0.00 0.00 77 1013.0
20260905221615 82 338 3.0 3.0 0.00 0.00 0.00 77 1012.9
20260905221111 83 50 1.0 4.0 0.00 0.00 0.00 77 1012.6